COSMOS 2428 (31792 NORAD) Tracking and Keplerian Element Data

This shows tracking and keplerian element data for the satellite.

Feedback or suggestion? Click here.




ElementValue
Catalog31792
NameCOSMOS 2428
Epoch Orbit85308
Epoch Day13.14023986
Epoch Year2024
RAAN54.1437
Inclination70.9434
Eccentricity0.0012447
Argument of Perigee265.4759
Mean Anonmoly94.4941
Mean Motion14.12663647
Decay Rate4.03E-06
L11 31792U 07029A 24013.14023986 .00000403 00000+0 24287-3 0 9995
L22 31792 70.9434 54.1437 0012447 265.4759 94.4941 14.12663647853086



Live tracking and technical data element details for COSMOS 2428 (NORAD 31792). COSMOS 2428 can be tracked NOW for your location showing map with azimuth and elevation plus other details from your city location.







IsCatalogInMostPopularTable: catalog: 31792, numindb: 623
Update: records affected: 1



GetName: 31792 COSMOS 2428

Hit Count: updated at: Sun, 14 Apr 2024 22:58:12 GMT